Theta_e
324 323 324 324 325 324 325 325 326 331 331 331 331 332 330 331 332 332 330 327 327 326 324 320 316 314 312 311 309 308 306 304 302 302 300 301 300 300 300 299 298 296 294 293
324 325 325 325 325 325 325 326 325 324 325 327 331 329 327 326 327 329 327 326 324 323 321 317 315 313 311 309 307 304 301 300 299 300 300 298 298 299 299 298 296 294 294 293
324 324 325 324 324 324 324 324 323 324 324 325 329 329 327 325 324 324 324 323 322 321 319 316 314 311 309 307 303 301 300 300 299 297 297 298 299 299 298 296 295 294 293 293
323 324 324 323 323 323 322 322 322 323 324 323 324 332 330 325 324 323 322 322 321 319 318 315 313 310 306 303 301 301 300 298 296 295 296 296 297 296 296 295 294 294 293 293
322 323 322 322 322 322 321 322 322 323 323 325 324 331 332 327 324 322 321 320 319 318 316 314 311 308 305 303 302 300 298 296 295 295 295 296 296 295 294 294 293 293 292 292
322 323 322 322 322 322 322 321 322 323 324 326 325 326 331 327 325 321 319 318 317 316 314 311 308 306 304 304 302 299 297 296 295 295 295 294 293 294 294 293 293 292 292 292
322 321 322 321 320 321 321 322 324 326 327 327 327 330 328 323 321 321 319 317 315 314 311 309 307 305 305 303 300 298 297 296 296 296 295 294 293 293 293 292 292 292 291 291
324 323 322 322 321 322 324 324 327 327 327 328 328 332 327 321 319 318 317 315 314 313 311 309 307 306 305 302 300 300 298 298 297 295 294 294 293 292 292 292 292 292 291 291
325 323 323 322 322 323 325 323 324 326 326 327 329 328 325 322 321 319 317 316 314 312 311 309 307 306 304 301 300 300 299 298 296 295 294 293 293 292 292 292 291 291 290 291
327 325 323 323 323 323 323 325 325 329 332 334 332 332 330 326 324 321 319 317 314 312 311 309 307 305 301 301 301 299 300 298 295 294 293 293 292 292 291 291 290 290 289 289
324 322 324 323 323 325 324 326 326 324 325 326 327 330 325 325 324 322 319 316 314 312 311 309 306 303 301 300 300 301 299 297 295 293 293 292 292 291 290 290 289 289 288 288
325 328 326 325 323 322 322 324 323 325 325 326 326 332 323 322 322 320 318 316 314 312 311 309 306 302 300 301 301 300 299 296 294 293 292 292 291 290 289 288 288 288 288 288
326 323 324 324 325 324 325 322 320 321 322 324 325 331 322 321 320 319 317 315 314 312 310 308 306 302 299 301 301 300 298 295 293 292 292 291 289 289 288 288 288 287 287 287
327 326 325 328 331 326 323 319 317 318 320 322 328 328 324 321 320 319 317 315 313 312 310 309 306 302 302 300 300 299 297 294 293 292 291 289 288 288 288 287 287 287 287 287
328 326 323 321 320 319 318 318 320 320 320 324 324 323 320 319 320 319 317 315 313 312 310 309 306 301 299 299 299 299 296 294 292 291 289 288 288 288 287 287 287 287 287 287
324 326 323 322 320 319 319 319 320 320 320 319 321 321 318 318 317 317 316 314 313 312 310 308 302 299 298 298 300 298 295 293 291 289 288 288 288 288 287 287 287 287 287 287
325 326 324 324 320 319 322 321 320 320 319 319 321 319 318 319 318 318 317 315 314 311 308 303 299 298 298 299 298 295 294 292 290 288 289 288 288 288 288 288 288 287 287 287
324 325 324 325 321 332 325 320 321 320 318 317 317 317 318 317 316 316 315 314 312 308 302 299 299 298 298 300 297 295 293 291 289 289 289 288 288 288 288 288 288 287 287 287
322 323 324 334 325 322 321 319 320 322 319 317 318 317 317 316 316 314 312 310 307 303 300 300 299 300 300 298 295 294 292 290 289 289 289 289 289 288 288 288 287 287 287 287
319 323 324 335 332 325 323 319 321 320 323 318 318 318 317 317 320 314 309 307 304 301 300 300 300 301 298 295 294 292 291 290 289 289 289 289 288 288 288 287 286 286 285 285
319 322 325 326 329 326 322 321 319 325 325 319 318 319 320 318 316 311 308 305 303 301 300 300 300 298 295 294 293 292 290 289 289 289 288 289 288 287 287 286 285 285 283 283
321 324 325 325 328 333 321 319 322 325 321 319 320 318 316 313 311 309 306 304 302 301 301 301 298 296 294 294 292 290 289 289 288 288 288 289 288 287 287 286 285 284 281 281
323 326 327 329 329 325 324 325 323 321 320 319 319 316 314 312 311 309 306 304 303 302 301 298 296 295 293 291 291 290 288 288 289 288 288 288 288 287 287 286 285 284 282 282
325 324 330 328 325 323 321 320 320 319 319 317 315 314 314 312 309 307 305 304 302 300 298 297 296 294 292 290 289 289 289 289 289 289 288 287 288 287 287 286 285 285 284 282
324 323 326 328 324 322 320 319 318 317 316 315 314 313 312 310 308 306 305 302 301 299 297 296 294 291 289 288 289 289 289 289 289 288 288 286 288 287 287 287 286 285 284 283
324 324 329 329 324 325 321 318 316 316 315 314 313 313 310 308 307 305 303 301 300 298 296 293 289 288 288 287 288 289 289 288 288 286 287 287 287 286 286 286 286 286 285 285
Wind_Speed
15 12 14 18 18 20 15 15 10 11 14 18 18 12 18 16 15 15 15 14 14 15 16 18 22 23 21 16 14 12 8 9 11 7 4 6 6 12 7 7 6 4 7 11
15 16 16 17 12 8 11 15 15 16 17 4 17 20 18 17 19 16 15 15 16 13 14 16 19 17 16 16 12 14 12 12 11 8 7 6 8 6 5 5 7 10 11 13
17 17 7 7 8 10 11 14 15 18 15 12 16 16 18 18 17 14 15 14 15 13 13 13 15 18 16 15 17 15 12 10 10 9 10 14 14 10 7 12 11 15 12 12
16 16 9 5 11 10 15 14 13 11 11 13 15 2 14 15 14 12 13 13 13 12 13 15 16 16 20 17 15 11 10 10 11 11 11 13 13 13 14 13 14 13 13 11
15 10 13 8 13 15 16 13 8 14 14 16 19 9 7 10 13 11 12 12 11 12 12 12 16 16 15 12 12 9 9 10 11 11 14 14 14 14 13 13 15 14 15 13
14 4 3 8 11 8 8 13 11 15 13 13 18 4 8 5 10 12 12 11 11 12 12 16 16 14 14 14 10 9 8 9 9 10 12 13 13 11 14 15 16 18 15 15
13 14 9 4 10 10 9 9 9 11 11 7 9 12 10 10 11 11 11 9 11 12 12 11 12 14 13 9 9 7 7 8 8 11 11 12 13 14 15 16 16 17 17 17
10 11 12 7 4 10 10 11 8 15 11 6 1 10 7 11 10 10 10 10 11 11 9 10 14 12 11 11 8 6 7 6 11 11 11 12 13 14 15 15 15 16 17 19
7 6 8 4 3 8 5 6 6 8 11 10 8 12 17 17 12 10 10 10 11 10 10 11 14 11 10 11 7 5 4 10 11 11 12 13 14 15 15 16 16 18 19 20
7 1 3 6 5 4 7 4 6 3 4 5 8 11 7 8 11 10 10 10 10 10 10 10 12 11 14 9 5 5 7 10 12 12 13 13 14 14 15 16 17 18 20 20
7 5 6 5 1 6 5 7 7 7 7 5 4 6 9 9 9 10 9 9 9 9 9 9 11 13 13 6 5 6 9 10 11 11 12 13 14 16 16 17 18 18 20 21
5 5 2 8 5 5 3 8 8 5 12 9 6 5 8 9 9 9 9 9 8 9 9 11 13 12 9 5 6 7 9 10 11 11 12 13 15 16 17 18 18 19 20 20
6 2 6 3 2 3 5 8 8 7 5 8 3 6 9 9 8 9 9 8 8 8 9 10 11 13 6 5 8 7 9 10 11 12 13 14 15 16 17 18 19 19 20 21
3 2 5 2 5 9 3 6 7 5 3 6 10 14 10 8 9 8 8 8 7 7 6 7 11 10 12 8 6 7 9 10 11 12 14 15 15 16 17 18 19 20 21 21
3 2 4 8 6 5 6 6 9 9 8 8 14 14 10 9 10 9 8 7 6 7 4 6 10 17 10 8 5 8 8 11 12 12 14 14 15 16 17 19 20 21 22 22
1 2 3 3 4 5 6 6 8 6 7 7 12 12 10 9 10 8 7 5 5 5 6 11 17 12 10 3 6 7 9 10 11 13 13 14 16 17 19 20 21 23 23 23
2 5 3 4 3 4 2 5 7 8 9 11 11 10 7 9 9 9 7 6 7 8 10 14 13 9 6 1 5 8 8 10 11 12 14 15 17 18 20 21 22 23 24 24
4 5 1 4 3 2 6 2 7 9 8 8 10 9 10 12 12 12 11 10 9 13 13 12 11 7 3 1 4 7 9 10 11 13 14 16 18 19 21 22 23 24 24 25
5 2 2 2 3 3 6 4 7 4 9 7 9 8 11 14 13 12 14 16 15 17 14 12 9 6 2 5 8 8 10 10 12 13 15 17 18 20 20 23 23 25 25 26
4 5 4 2 1 3 9 10 5 1 7 7 6 5 6 10 6 8 12 16 16 16 13 11 7 3 7 9 8 9 10 12 12 13 15 17 18 20 19 23 24 24 26 25
6 6 6 7 3 3 10 8 4 4 5 7 9 10 12 9 10 14 16 15 14 13 12 9 6 11 10 8 8 9 11 11 12 15 16 15 17 19 19 21 25 24 27 26
7 5 5 7 4 3 9 6 2 9 9 10 14 14 15 16 16 14 14 14 14 12 9 7 12 11 9 9 8 11 10 11 12 13 13 15 16 18 18 18 22 23 26 24
4 3 1 4 6 11 12 13 11 11 11 13 13 13 15 16 14 13 12 15 12 10 10 11 11 11 11 12 12 10 11 9 9 12 14 16 15 18 18 17 19 19 24 22
2 2 6 7 9 12 13 12 13 13 13 13 14 14 14 14 13 12 15 13 12 11 11 10 10 11 11 11 10 9 11 12 12 14 15 16 16 19 19 17 15 15 22 20
3 5 8 12 13 12 12 13 12 14 15 15 16 15 15 13 13 13 14 13 13 12 10 14 14 12 11 9 9 8 10 12 14 13 14 18 16 19 19 19 17 19 23 20
3 4 5 6 12 6 13 11 14 14 14 15 15 15 18 16 15 16 15 14 13 12 13 13 12 13 10 10 9 8 10 12 13 15 15 16 17 19 19 18 19 20 22 22
Wind_Direction
210 234 238 241 233 242 277 294 283 163 184 217 242 93 58 32 108 103 111 110 112 98 106 98 88 89 94 95 96 94 92 55 92 91 44 344 359 346 341 349 353 337 350 352
237 221 244 260 276 330 304 302 300 296 290 113 105 89 79 60 37 75 95 102 99 107 106 102 97 96 97 93 95 82 67 53 48 40 27 5 333 328 303 333 24 27 358 357
230 240 176 330 300 288 273 270 279 281 303 310 123 111 96 86 78 73 76 95 106 116 115 113 107 98 98 89 81 70 67 56 47 41 14 3 354 325 344 360 357 354 345 346
250 240 277 259 275 279 284 295 314 312 295 280 282 131 102 97 92 84 86 94 101 115 120 119 115 109 87 79 79 77 65 55 42 36 26 25 357 8 8 9 349 338 344 343
243 239 270 249 268 277 269 288 306 293 284 288 276 110 198 132 105 95 91 94 106 116 116 116 114 107 98 99 87 75 66 53 41 33 34 22 17 4 357 358 342 354 346 352
269 317 280 258 271 263 307 289 279 271 261 262 265 264 146 80 93 110 96 101 109 109 111 104 106 109 106 90 83 72 59 47 35 31 30 23 10 356 349 2 355 355 350 347
222 243 204 234 279 261 231 263 273 260 234 248 20 72 91 88 60 88 114 119 117 112 111 121 130 113 109 101 90 69 46 36 26 29 24 16 8 5 358 4 355 343 349 344
223 196 191 138 256 302 296 237 256 303 311 323 24 134 101 101 103 101 106 113 114 114 125 131 118 113 105 95 77 49 33 23 33 23 15 16 12 6 2 355 350 347 345 343
324 119 94 53 311 270 319 259 330 306 293 277 91 106 137 133 118 111 114 114 115 124 131 118 107 108 110 88 61 16 3 31 28 22 15 16 9 5 357 351 354 351 349 342
341 192 121 119 247 209 278 340 307 53 328 14 113 103 107 86 113 117 109 109 116 122 121 118 111 110 90 83 33 29 6 32 24 19 16 10 4 358 356 355 355 353 348 347
338 260 122 189 261 33 346 33 347 336 305 311 313 83 53 66 72 96 103 115 125 126 124 120 116 102 93 70 12 355 26 25 22 15 12 9 3 359 359 357 354 353 349 348
56 322 309 91 60 359 21 24 355 348 328 325 308 80 69 75 89 103 105 109 115 122 127 119 118 109 94 53 352 20 29 22 15 12 7 14 3 0 359 356 354 351 349 347
6 271 277 191 87 54 33 3 354 334 275 284 356 118 121 107 87 101 109 110 116 123 118 120 121 107 107 68 22 8 28 16 8 10 8 13 3 360 358 355 352 350 348 345
326 18 340 103 164 259 46 24 360 332 296 359 93 135 129 104 108 106 104 113 119 124 125 127 115 111 99 56 10 354 20 16 6 10 12 11 2 357 357 353 350 349 347 342
328 105 52 66 71 50 44 46 44 48 11 59 78 84 81 65 73 78 96 105 116 115 130 106 93 92 87 42 323 13 14 16 9 13 13 7 359 357 358 353 352 350 347 345
333 119 111 81 87 75 75 73 84 45 65 72 117 99 92 111 131 120 106 107 110 104 93 92 94 94 71 55 338 359 26 15 12 16 10 6 360 358 359 354 353 351 348 346
129 157 198 145 31 35 150 44 67 76 42 21 79 93 154 119 77 59 115 97 83 89 86 82 95 85 82 70 4 23 20 24 16 15 8 6 1 358 357 355 351 351 348 348
156 197 144 122 131 38 88 63 63 92 87 93 86 79 72 85 76 58 37 84 87 93 94 97 99 90 105 255 11 31 20 24 23 15 8 4 1 359 357 355 352 351 349 351
229 151 124 100 174 147 156 172 159 175 106 52 112 116 114 111 108 72 61 61 73 88 103 105 109 116 127 48 39 23 27 28 22 13 5 2 1 358 357 355 355 353 357 354
224 273 163 46 167 214 104 145 77 67 130 86 82 98 140 165 155 107 91 88 92 99 107 110 111 127 74 52 38 35 38 30 19 7 1 3 0 355 3 359 1 358 3 357
191 201 209 135 215 81 114 113 158 227 95 77 79 70 55 77 87 104 104 97 102 106 110 116 122 77 68 51 41 57 41 27 13 7 0 1 4 355 9 7 6 8 6 1
178 183 195 152 200 135 122 151 278 103 100 94 85 92 101 107 108 109 108 109 112 113 131 121 87 77 60 39 44 58 40 27 16 9 2 358 9 359 5 14 11 11 7 3
170 77 120 38 87 94 77 95 115 110 107 98 104 114 115 115 117 113 109 116 121 130 103 89 91 79 59 48 49 57 34 18 351 354 3 8 11 2 7 18 13 12 6 3
69 8 118 109 119 111 104 99 99 100 99 110 116 119 119 117 117 113 120 127 109 102 93 97 95 81 68 61 57 45 15 358 355 18 19 7 10 9 9 14 16 13 5 359
16 166 139 103 122 117 111 102 104 105 107 111 113 114 116 120 120 119 118 113 108 101 94 77 78 81 74 64 51 31 11 10 7 20 17 13 9 8 9 11 8 13 7 0
176 137 150 167 150 135 121 119 119 119 117 114 117 114 119 123 119 122 114 113 108 103 97 89 90 95 85 61 48 31 22 21 22 24 5 17 14 12 4 7 3 5 5 5